Location: Mohawk View
(42.7837°N, 73.7885°W)
Time: 13:10:47
(UTC+00:00)

Lacrosse 5 rocket - Pass Details

Date: 17 June 2021
Orbit: 459 x 634 km, 57.0° (Epoch: 26 July)

Event Time Altitude Azimuth Distance (km) Brightness Sun altitude
Rises 01:33:12 0° 189° (S) 2,561 4.4 -9.0°
Reaches altitude 10° 01:35:51 10° 170° (S) 1,656 3.3 -9.4°
Maximum altitude 01:38:29 19° 125° (SE) 1,203 2.4 -9.7°
Drops below altitude 10° 01:41:04 10° 79° (E) 1,623 3.4 -10.1°
Sets 01:43:37 0° 61° (ENE) 2,490 4.5 -10.4°
